Regional Weather Roundup
Issued by NWS

Home | Current Version | Previous Version | Graphics & Text | Print | Product List | Glossary Off
Versions: 1 2 3 4 5 6 7 8 9 10 11 12 13 14 15 16 17 18 19 20 21 22 23 24 25 26 27 28 29 30 31 32 33 34 35 36 37 38 39 40 41 42 43 44 45 46 47 48 49 50

000
ASUS43 KMPX 312210
RWRMN
WEATHER ROUNDUP FOR MINNESOTA
NATIONAL WEATHER SERVICE TWIN CITIES/CHANHASSEN MN
500 PM CDT WED AUG 31 2016


NOTE: "FAIR" INDICATES FEW OR NO CLOUDS BELOW 12,000 FEET WITH NO
SIGNIFICANT WEATHER AND/OR OBSTRUCTIONS TO VISIBILITY. N/A MEANS
CURRENT SKY AND/OR WEATHER CONDITIONS ARE NOT AVAILABLE.

MNZ060>063-068>070-312300-
   Twin Cities Metro

CITY           SKY/WX    TMP DP  RH WIND       PRES   REMARKS
TWIN CITIES    MOSUNNY   79  52  38 N9        30.16F
ST PAUL        SUNNY     77  52  41 VRB7      30.16F
CRYSTAL        SUNNY     79  50  36 N8        30.15F
BLAINE         SUNNY     79  54  41 N9        30.17F
LAKEVILLE      SUNNY     75  54  46 NE6       30.17S
EDEN PRAIRIE   SUNNY     79  54  41 NW8       30.16S
LAKEVILLE      SUNNY     75  54  46 NE6       30.17S
SOUTH ST PAUL  SUNNY     78  47  33 N8        30.16S
LAKE ELMO      FAIR      75  54  46 N7        30.18S
$$
MNZ001>005-007-008-013>017-022>024-027-028-312300-
   Northwest Minnesota

CITY           SKY/WX    TMP DP  RH WIND       PRES   REMARKS
BEMIDJI        SUNNY     70  55  57 N9        30.22F
HALLOCK        SUNNY     73  54  49 N9        30.21F
ROSEAU         SUNNY     72  55  56 NE9       30.24S
WARROAD        SUNNY     68  55  64 E7        30.25F
THIEF RVR FALL SUNNY     72  55  55 NE10      30.23F
CROOKSTON      SUNNY     75  55  50 NE7       30.21F
FOSSTON        SUNNY     75  61  60 N8        30.22F
DETROIT LAKES  SUNNY     73  52  46 N5        30.22F
MOORHEAD       SUNNY     79  52  38 NE7       30.19F
PARK RAPIDS    SUNNY     75  50  41 N10       30.20F
MAHNOMEN       FAIR      73  53  49 N12       30.21F
$$
MNZ006-009>011-018-025>026-312300-
   North Central Minnesota

CITY           SKY/WX    TMP DP  RH WIND       PRES   REMARKS
BAUDETTE       SUNNY     69  55  60 NW12      30.24S
FLAG ISLAND    SUNNY     66  52  59 CALM      30.24S
INTL FALLS     MOSUNNY   71  52  50 N9        30.22S
WASKISH        MOSUNNY   72  55  56 N5        30.23S
BIG FORK       CLOUDY    68  54  60 N6        30.23S
LONGVILLE      MOSUNNY   72  55  56 CALM      30.21S
GRAND RAPIDS   MOSUNNY   70  53  54 N9        30.23S
CRANE LAKE     MOSUNNY   70  54  56 N5        30.22F
ORR            MOSUNNY   72  48  43 NW5       30.19F
COOK           MOSUNNY   68  54  60 NW3       30.21F
WALKER         FAIR      71  54  55 NW8       30.21F
$$
MNZ012-019>021-037-312300-
   Northeast Minnesota

CITY           SKY/WX    TMP DP  RH WIND       PRES   REMARKS
DULUTH         PTSUNNY   71  54  54 N9        30.19S
ELY            PTSUNNY   66  50  55 CALM      30.21R
HIBBING        CLOUDY    68  52  56 N7        30.21S
EVELETH        CLOUDY    70  51  51 N5        30.22F
DULUTH HARBOR  PTSUNNY   75  61  60 E9        30.17S
TWO HARBORS    PTSUNNY   72  57  60 SE5       30.17S
SILVER BAY     CLOUDY    70  55  60 SE6       30.17S
GRAND MARAIS     N/A     72  34  24 N8        30.16S
G MARAIS ARPRT CLOUDY    64  48  55 NW5       30.21S
$$
MNZ029>031-032-039>041-046>048-054>057-064-312300-
   West Central Minnesota

CITY           SKY/WX    TMP DP  RH WIND       PRES   REMARKS
FERGUS FALLS   SUNNY     77  54  44 NE3       30.19F
WHEATON        SUNNY     82  55  39 NE5       30.19F
MORRIS         SUNNY     82  54  36 N6        30.18F
ALEXANDRIA     SUNNY     78  52  40 NW7       30.21F
ELBOW LAKE     FAIR      77  54  45 NE3       30.19F
WADENA         SUNNY     75  54  46 N6        30.20S
GLENWOOD       SUNNY     77  54  44 N6        30.21S
APPLETON       SUNNY     81  54  39 NE3       30.17F
BENSON         SUNNY     81  52  36 NE7       30.18F
ORTONVILLE     SUNNY     81  55  41 CALM      30.18F
MADISON        SUNNY     81  54  39 CALM      30.18F
WILLMAR        FAIR      81  57  44 NW6       30.20S
$$
MNZ033>034-036-042>043-049>051-058-059-312300-
   Central Minnesota

CITY           SKY/WX    TMP DP  RH WIND       PRES   REMARKS
ST CLOUD       SUNNY     77  55  46 N7        30.17F
SAUK CENTRE    FAIR      76  52  43 N7        30.19F
PAYNESVILLE    SUNNY     78  51  38 N7        30.19F
AITKIN         MOSUNNY   77  48  36 N10       30.18S
PINE RIVER     SUNNY     72  55  56 N8        30.23F
BRAINERD       SUNNY     73  52  47 NW7       30.20F
STAPLES        SUNNY     75  48  38 N5        30.20F
LONG PRAIRIE   FAIR      75  54  46 N6        30.20F
LITTLE FALLS   SUNNY     75  50  41 NE3       30.19F
LITCHFIELD     SUNNY     79  57  47 N6        30.19S
BUFFALO        SUNNY     77  51  39 NW5       30.19S
MAPLE LAKE     SUNNY     78  58  49 N5        30.19S
HUTCHINSON     SUNNY     78  59  50 N5        30.19S
$$
MNZ037-044-045-052-053-312300-
   East Central Minnesota

CITY           SKY/WX    TMP DP  RH WIND       PRES   REMARKS
PRINCETON      SUNNY     79  54  41 NW7       30.17F
MORA           SUNNY     73  52  46 N7        30.19F
CAMBRIDGE      SUNNY     79  55  44 NW7       30.16S
RUSH CITY      SUNNY     76  52  42 N6        30.17F
MOOSE LAKE     SUNNY     73  50  43 N5        30.16F
HINCKLEY       FAIR      75  54  46 N7        30.17S
CLOQUET        MOSUNNY   73  48  40 N5        30.18F
MCGREGOR       SUNNY     72  52  49 N9        30.20R
$$
MNZ071>073-080-081-089-090-097-098-312300-
   Southwest Minnesota

CITY           SKY/WX    TMP DP  RH WIND       PRES   REMARKS
MONTEVIDEO     SUNNY     82  59  44 CALM      30.20F
GRANITE FALLS  SUNNY     81  59  48 CALM      30.19F
CANBY          SUNNY     81  56  42 NE5       30.19F
MARSHALL       SUNNY     78  57  48 NE7       30.19F
REDWOOD FALLS  SUNNY     80  56  43 N6        30.18F
OLIVIA         SUNNY     79  59  50 N3        30.18S
WINDOM         SUNNY     77  57  50 N8        30.19F
WORTHINGTON    SUNNY     78  56  46 N3        30.21
JACKSON        SUNNY     77  55  47 N6        30.20F
TRACY          SUNNY     78  61  54 N5        30.20F
SLAYTON        SUNNY     75  57  53 N5        30.21F
$$
MNZ065>067-074>077-082>085-091>093-312300-
   South Central Minnesota

CITY           SKY/WX    TMP DP  RH WIND       PRES   REMARKS
MANKATO        SUNNY     76  55  48 NW6       30.18F
NEW ULM        SUNNY     77  55  47 N7        30.18S
ST JAMES       SUNNY     79  55  44 N7        30.19F
FAIRMONT       SUNNY     77  58  51 N7        30.18F
GLENCOE        SUNNY     78  59  52 N6        30.17F
FARIBAULT      SUNNY     79  55  44 N6        30.18S
OWATONNA       SUNNY     77  52  41 N7        30.17F
WASECA         SUNNY     73  55  53 N6        30.19S
ALBERT LEA     SUNNY     75  55  50 N7        30.17S
$$
MNZ078>079-086>088-094>096-312300-
   Southeast Minnesota

CITY           SKY/WX    TMP DP  RH WIND       PRES   REMARKS
ROCHESTER      SUNNY     76  52  43 N10       30.17S
RED WING       SUNNY     79  48  34 N7        30.15S
STANTON        SUNNY     77  54  44 VRB6      30.15F
DODGE CENTER   SUNNY     75  52  43 N9        30.18S
WINONA         SUNNY     77  52  41 N5        30.14F
AUSTIN         SUNNY     75  54  46 N6        30.16F
PRESTON        SUNNY     74  49  41 N9        30.16F
$$
ABBREVIATIONS USED IN REMARKS
   TC - TEMPERATURES IN CELSIUS
  WCI - WIND CHILL INDEX
   HX - HEAT INDEX
  VSB - VISIBILITY
$$




USA.gov is the U.S. government's official web portal to all federal, state and local government web resources and services.